| time (UTC) | temp F | wind direction | speed knots | gust knots | rain 1hr in | rain 24hr in | rain mn in | humidity % | barometer mb |
| 20260507094531 | 54 | 321 | 1.7 | 7.0 | 0.00 | 0.00 | 0.00 | 77 | 1020.8 |
| 20260507093037 | 54 | 333 | 1.7 | 7.0 | 0.00 | 0.00 | 0.00 | 76 | 1020.9 |
| 20260507091528 | 54 | 325 | 1.7 | 5.2 | 0.00 | 0.00 | 0.00 | 76 | 1021.0 |
| 20260507090031 | 54 | 329 | 4.3 | 7.0 | 0.00 | 0.00 | 0.00 | 75 | 1021.0 |
| 20260507084525 | 55 | 338 | 3.5 | 8.7 | 0.00 | 0.00 | 0.00 | 75 | 1021.0 |
| 20260507083035 | 55 | 319 | 1.7 | 4.3 | 0.00 | 0.00 | 0.00 | 76 | 1021.0 |
| 20260507081527 | 55 | 294 | 2.6 | 7.8 | 0.00 | 0.00 | 0.00 | 76 | 1021.1 |
| 20260507080020 | 55 | 323 | 5.2 | 8.7 | 0.00 | 0.00 | 0.00 | 76 | 1021.1 |
| 20260507074526 | 55 | 2 | 1.7 | 6.1 | 0.00 | 0.00 | 0.00 | 77 | 1021.1 |
| 20260507073017 | 55 | 314 | 2.6 | 4.3 | 0.00 | 0.00 | 0.00 | 77 | 1021.0 |
| 20260507071515 | 55 | 310 | 4.3 | 8.7 | 0.00 | 0.00 | 0.00 | 77 | 1020.9 |
| 20260507070014 | 55 | 308 | 1.7 | 7.8 | 0.00 | 0.00 | 0.00 | 77 | 1020.8 |
| 20260507064511 | 55 | 50 | 4.3 | 9.6 | 0.00 | 0.00 | 0.00 | 76 | 1020.9 |
| 20260507063008 | 56 | 321 | 2.6 | 6.1 | 0.00 | 0.00 | 0.00 | 77 | 1020.9 |
| 20260507061507 | 56 | 13 | 0.9 | 8.7 | 0.00 | 0.00 | 0.00 | 78 | 1021.0 |
| 20260507060005 | 56 | 333 | 0.0 | 7.8 | 0.00 | 0.00 | 0.00 | 78 | 1021.0 |
| 20260507054502 | 56 | 25 | 1.7 | 6.1 | 0.00 | 0.00 | 0.00 | 77 | 1021.0 |
| 20260507053001 | 56 | 248 | 3.5 | 7.8 | 0.00 | 0.00 | 0.00 | 77 | 1021.0 |
| 20260507051601 | 57 | 354 | 0.9 | 7.8 | 0.00 | 0.00 | 0.00 | 76 | 1020.9 |
| 20260507050100 | 57 | 273 | 2.6 | 8.7 | 0.00 | 0.00 | 0.00 | 76 | 1021.0 |
| 20260507044616 | 57 | 46 | 1.7 | 8.7 | 0.00 | 0.00 | 0.00 | 75 | 1020.9 |
| 20260507043059 | 58 | 314 | 3.5 | 11.3 | 0.00 | 0.00 | 0.00 | 75 | 1020.9 |
| 20260507041602 | 58 | 2 | 0.9 | 10.4 | 0.00 | 0.00 | 0.00 | 74 | 1020.7 |
| 20260507040104 | 59 | 315 | 2.6 | 12.2 | 0.00 | 0.00 | 0.00 | 73 | 1020.6 |
| 20260507034558 | 59 | 6 | 1.7 | 4.3 | 0.00 | 0.00 | 0.00 | 73 | 1020.3 |
| 20260507033056 | 60 | 315 | 2.6 | 7.0 | 0.00 | 0.00 | 0.00 | 73 | 1020.2 |
| 20260507031557 | 61 | 342 | 2.6 | 8.7 | 0.00 | 0.00 | 0.00 | 72 | 1019.9 |
| 20260507030055 | 61 | 313 | 2.6 | 7.8 | 0.00 | 0.00 | 0.00 | 72 | 1019.7 |
| 20260507024551 | 62 | 287 | 2.6 | 8.7 | 0.00 | 0.00 | 0.00 | 71 | 1019.5 |
| 20260507023052 | 63 | 314 | 3.5 | 8.7 | 0.00 | 0.00 | 0.00 | 70 | 1019.4 |
| 20260507021550 | 64 | 73 | 0.9 | 6.1 | 0.00 | 0.00 | 0.00 | 69 | 1019.5 |
| 20260507020100 | 64 | 320 | 5.2 | 10.4 | 0.00 | 0.00 | 0.00 | 69 | 1019.4 |
| 20260507014601 | 64 | 10 | 2.6 | 11.3 | 0.00 | 0.00 | 0.00 | 68 | 1019.5 |
| 20260507013048 | 65 | 356 | 4.3 | 10.4 | 0.00 | 0.00 | 0.00 | 67 | 1019.6 |
| 20260507011559 | 66 | 281 | 4.3 | 10.4 | 0.00 | 0.00 | 0.00 | 65 | 1019.5 |
| 20260507010048 | 67 | 289 | 4.3 | 8.7 | 0.00 | 0.00 | 0.00 | 64 | 1019.5 |
| 20260507004546 | 69 | 291 | 1.7 | 7.8 | 0.00 | 0.00 | 0.00 | 62 | 1019.4 |
| 20260507003046 | 69 | 316 | 3.5 | 8.7 | 0.00 | 0.00 | 0.00 | 63 | 1019.3 |
| 20260507001559 | 70 | 131 | 1.7 | 8.7 | 0.00 | 0.00 | 0.00 | 64 | 1019.3 |
| 20260507000048 | 71 | 303 | 1.7 | 5.2 | 0.00 | 0.00 | 0.00 | 62 | 1019.3 |
| 20260506234546 | 72 | 322 | 0.0 | 3.5 | 0.00 | 0.00 | 0.00 | 60 | 1019.2 |
| 20260506233045 | 72 | 118 | 0.9 | 2.6 | 0.00 | 0.00 | 0.00 | 60 | 1019.1 |
| 20260506231543 | 72 | 111 | 2.6 | 4.3 | 0.00 | 0.00 | 0.00 | 60 | 1019.2 |
| 20260506230047 | 72 | 331 | 0.9 | 3.5 | 0.00 | 0.00 | 0.00 | 60 | 1019.4 |
| 20260506224541 | 72 | 89 | 0.9 | 4.3 | 0.00 | 0.00 | 0.00 | 61 | 1019.6 |
| 20260506223038 | 71 | 345 | 1.7 | 4.3 | 0.00 | 0.00 | 0.00 | 62 | 1019.7 |
| 20260506221537 | 70 | 1 | 0.0 | 3.5 | 0.00 | 0.00 | 0.00 | 62 | 1019.8 |
| 20260506220041 | 70 | 77 | 0.0 | 2.6 | 0.00 | 0.00 | 0.00 | 63 | 1019.9 |
| 20260506214533 | 70 | 72 | 1.7 | 7.0 | 0.00 | 0.00 | 0.00 | 65 | 1019.8 |
| 20260506213028 | 68 | 107 | 1.7 | 3.5 | 0.00 | 0.00 | 0.00 | 68 | 1019.9 |
| 20260506211527 | 67 | 2 | 0.9 | 3.5 | 0.00 | 0.00 | 0.00 | 68 | 1020.1 |
| 20260506210024 | 67 | 44 | 0.9 | 3.5 | 0.00 | 0.00 | 0.00 | 70 | 1020.3 |
| 20260506204522 | 66 | 84 | 2.6 | 5.2 | 0.00 | 0.00 | 0.00 | 71 | 1020.2 |
| 20260506203020 | 65 | 131 | 0.9 | 3.5 | 0.00 | 0.00 | 0.00 | 72 | 1020.3 |
| 20260506201521 | 65 | 349 | 0.9 | 4.3 | 0.00 | 0.00 | 0.00 | 73 | 1020.3 |
| 20260506200018 | 64 | 323 | 0.0 | 3.5 | 0.00 | 0.00 | 0.00 | 73 | 1020.4 |
| 20260506194513 | 64 | 276 | 0.9 | 4.3 | 0.00 | 0.00 | 0.00 | 74 | 1020.6 |
| 20260506193011 | 63 | 300 | 0.9 | 2.6 | 0.00 | 0.00 | 0.00 | 74 | 1020.7 |
| 20260506191515 | 63 | 274 | 0.9 | 4.3 | 0.00 | 0.00 | 0.00 | 73 | 1020.5 |
| 20260506190008 | 63 | 146 | 0.0 | 4.3 | 0.00 | 0.00 | 0.00 | 75 | 1020.6 |
| 20260506184505 | 62 | 94 | 1.7 | 4.3 | 0.00 | 0.00 | 0.00 | 77 | 1020.5 |
| 20260506183002 | 61 | 250 | 1.7 | 4.3 | 0.00 | 0.00 | 0.00 | 77 | 1020.4 |
| 20260506181502 | 61 | 308 | 0.9 | 3.5 | 0.00 | 0.00 | 0.00 | 78 | 1020.5 |
| 20260506180059 | 60 | 242 | 0.9 | 4.3 | 0.00 | 0.00 | 0.00 | 80 | 1020.5 |
| 20260506174608 | 60 | 304 | 0.9 | 4.3 | 0.00 | 0.00 | 0.00 | 80 | 1020.5 |
| 20260506173058 | 59 | 308 | 0.9 | 2.6 | 0.00 | 0.00 | 0.00 | 80 | 1020.4 |
| 20260506171605 | 59 | 241 | 0.0 | 2.6 | 0.00 | 0.00 | 0.00 | 80 | 1020.3 |
| 20260506170055 | 59 | 55 | 0.9 | 4.3 | 0.00 | 0.00 | 0.00 | 79 | 1020.3 |
| 20260506164558 | 59 | 316 | 1.7 | 4.3 | 0.00 | 0.00 | 0.00 | 80 | 1020.3 |
| 20260506163114 | 59 | 15 | 0.0 | 3.5 | 0.00 | 0.00 | 0.00 | 81 | 1020.4 |
| 20260506161553 | 59 | 84 | 0.0 | 2.6 | 0.00 | 0.00 | 0.00 | 82 | 1020.1 |
| 20260506160053 | 58 | 149 | 0.9 | 2.6 | 0.00 | 0.00 | 0.00 | 82 | 1019.9 |
| 20260506154554 | 57 | 129 | 1.7 | 3.5 | 0.00 | 0.00 | 0.00 | 84 | 1019.5 |
| 20260506153102 | 57 | 49 | 0.9 | 2.6 | 0.00 | 0.00 | 0.00 | 84 | 1020.1 |
| 20260506151551 | 57 | 293 | 1.7 | 6.1 | 0.00 | 0.00 | 0.00 | 83 | 1020.4 |
| 20260506150050 | 57 | 359 | 0.0 | 3.5 | 0.00 | 0.00 | 0.00 | 84 | 1020.3 |
| 20260506144547 | 57 | 6 | 0.0 | 5.2 | 0.00 | 0.00 | 0.00 | 84 | 1019.9 |
| 20260506143046 | 57 | 299 | 0.0 | 3.5 | 0.00 | 0.00 | 0.00 | 84 | 1019.8 |
| 20260506141543 | 57 | 29 | 0.0 | 1.7 | 0.00 | 0.00 | 0.00 | 85 | 1019.4 |
| 20260506140043 | 57 | 4 | 0.0 | 1.7 | 0.00 | 0.00 | 0.00 | 85 | 1019.5 |
| 20260506134542 | 57 | 75 | 0.0 | 1.7 | 0.00 | 0.00 | 0.00 | 85 | 1019.3 |
| 20260506133038 | 57 | 75 | 0.0 | 0.9 | 0.00 | 0.00 | 0.00 | 85 | 1019.2 |
| 20260506131539 | 57 | 75 | 0.0 | 1.7 | 0.00 | 0.00 | 0.00 | 85 | 1019.0 |
| 20260506130040 | 56 | 75 | 0.0 | 0.9 | 0.00 | 0.00 | 0.00 | 85 | 1018.9 |
| 20260506124538 | 56 | 75 | 0.0 | 2.6 | 0.00 | 0.00 | 0.00 | 85 | 1018.8 |
| 20260506123036 | 56 | 48 | 0.0 | 1.7 | 0.00 | 0.00 | 0.00 | 85 | 1018.8 |
| 20260506121543 | 56 | 333 | 0.9 | 2.6 | 0.00 | 0.00 | 0.00 | 85 | 1018.8 |
| 20260506120037 | 57 | 225 | 0.9 | 5.2 | 0.00 | 0.00 | 0.00 | 85 | 1018.8 |
| 20260506114531 | 57 | 332 | 1.7 | 7.0 | 0.00 | 0.00 | 0.00 | 84 | 1018.5 |
| 20260506113029 | 57 | 285 | 1.7 | 4.3 | 0.00 | 0.00 | 0.00 | 84 | 1018.4 |
| 20260506111530 | 57 | 356 | 0.9 | 4.3 | 0.00 | 0.00 | 0.00 | 83 | 1018.3 |
| 20260506110026 | 57 | 8 | 0.9 | 3.5 | 0.00 | 0.00 | 0.00 | 83 | 1018.2 |
| 20260506104523 | 57 | 293 | 1.7 | 3.5 | 0.00 | 0.00 | 0.00 | 82 | 1017.9 |
| 20260506103021 | 57 | 319 | 2.6 | 6.1 | 0.00 | 0.00 | 0.00 | 82 | 1017.7 |
| 20260506101519 | 57 | 337 | 0.0 | 2.6 | 0.00 | 0.00 | 0.00 | 82 | 1017.5 |
| 20260506100018 | 58 | 319 | 0.0 | 4.3 | 0.00 | 0.00 | 0.00 | 81 | 1017.4 |